Regional Weather Roundup
Issued by NWS San Angelo, TX

Home | Current Version | Previous Version | Text Only | Print | Product List | Glossary On
Versions: 1 2 3 4 5 6 7 8 9 10 11 12 13 14 15 16 17 18 19 20 21 22 23 24 25 26 27 28 29 30 31 32 33 34 35 36 37 38 39 40 41 42 43 44 45 46 47 48 49 50
000
ASUS44 KSJT 232010
RWRSJT
WEST CENTRAL TEXAS REGIONAL WEATHER ROUNDUP
NATIONAL WEATHER SERVICE SAN ANGELO TX
200 PM CST THU NOV 23 2017

NOTE: "FAIR" INDICATES FEW OR NO CLOUDS BELOW 12,000 FEET WITH NO
SIGNIFICANT WEATHER AND/OR OBSTRUCTIONS TO VISIBILITY.

TXZ049-054-064>066-071>073-076>078-098-099-113-114-127-128-139-140-
154-155-168>170-232100
...LOCATIONS ACROSS WEST CENTRAL TEXAS...

CITY           SKY/WX    TMP DP  RH WIND       PRES   REMARKS
SAN ANGELO     SUNNY     72  29  20 VRB6      30.09F
ABILENE        SUNNY     71  33  24 SW8       30.08F
DYESS AFB      SUNNY     72  36  27 W3        30.06F
JUNCTION       SUNNY     71  26  18 W8        30.09F
SWEETWATER     CLOUDY    68  30  24 SW8       30.12F
BROWNWOOD      SUNNY     70  28  21 SW8       30.08F
COLEMAN        CLEAR     70  30  22 W7        30.09F
SONORA         SUNNY     68  27  21 CALM      30.15F
OZONA          FAIR      70  27  19 S3        30.14F
BRADY          NOT AVBL
$$

TEXAS PANHANDLE/OKLAHOMA PANHANDLE

CITY           SKY/WX    TMP DP  RH WIND       PRES   REMARKS
AMARILLO       SUNNY     73  38  27 NW10      30.12F
BORGER         SUNNY     74  40  29 VRB3      30.09F
CANADIAN       SUNNY     75  37  24 W5        30.05F
DALHART        SUNNY     73  38  27 VRB5      30.13F
DUMAS          CLEAR     72  38  29 CALM      30.11F
GUYMON         NOT AVBL
HEREFORD       CLOUDY    72  37  27 MISG      30.14F
PAMPA          CLEAR     75  39  27 NW7       30.09F
PERRYTON       SUNNY     75  40  28 NW6       30.06F
$$

SOUTHERN PANHANDLE/SOUTH PLAINS/ROLLING PLAINS

CITY           SKY/WX    TMP DP  RH WIND       PRES   REMARKS
LUBBOCK        PTSUNNY   76  27  16 NW12      30.11F
SNYDER         CLOUDY    70  33  25 NW3       30.10F
CHILDRESS      SUNNY     76  32  20 W6        30.05F
SEMINOLE       CLEAR     74  32  21 E7        30.14F
$$

PERMIAN BASIN

CITY           SKY/WX    TMP DP  RH WIND       PRES   REMARKS
MIDLAND        CLOUDY    72  28  19 VRB3      30.12F
ODESSA         SUNNY     71  26  18 VRB3      30.13F
WINK           SUNNY     72  28  19 VRB3      30.12F
$$

FAR WEST/SOUTHWEST MOUNTAINS/TRANS PECOS

CITY           SKY/WX    TMP DP  RH WIND       PRES   REMARKS
ALPINE         CLEAR     70  27  19 N8        30.24F
DRYDEN           N/A     75  29  18 CALM      30.09F
EL PASO        MOSUNNY   69  26  20 NE3       30.19F
FORT STOCKTON  SUNNY     67  30  25 NW6       30.15F
GUADALUPE PASS SUNNY     65  27  23 SW8       30.25F
MARFA          SUNNY     70  28  21 NE10      30.20F
PECOS          CLEAR     69  31  24 NW5       30.13F
$$

DALLAS/FORT WORTH METROPLEX

CITY           SKY/WX    TMP DP  RH WIND       PRES   REMARKS
DFW AIRPORT    MOSUNNY   67  27  22 S5        30.06F
FTW MEACHAM    SUNNY     70  30  22 VRB3      30.06F
DAL-EXECUTIVE  SUNNY     66  27  23 S5        30.07F
GRAND PRAIRIE  NOT AVBL
ADDISON        SUNNY     64  25  22 SE5       30.08F
MESQUITE       CLEAR     63  25  23 CALM      30.09F
LANCASTER      CLEAR     64  26  23 SW3       30.10F
$$

NORTH CENTRAL TEXAS

CITY           SKY/WX    TMP DP  RH WIND       PRES   REMARKS
SHRMAN/DENISON CLEAR     67  28  23 SW5       30.08F
GAINESVILLE    SUNNY     69  28  21 S5        30.07F
BRIDGEPORT     CLEAR     71  31  22 S6        30.07F
DENTON         SUNNY     68  30  24 SW9       30.06F
WAXAHACHIE     CLEAR     66  31  27 SW5       30.10F
GRANBURY       CLEAR     73  30  20 S7        30.07F
$$

WESTERN NORTH TEXAS

CITY           SKY/WX    TMP DP  RH WIND       PRES   REMARKS
WICHITA FALLS  SUNNY     67  32  27 CALM      30.05F
VERNON         CLEAR     72  21  15 S5        30.05F
BRECKENRIDGE   CLEAR     74  29  19 SW8       30.05F HAZE
COMANCHE       SUNNY     70  32  24 SW7       30.08F
$$

CENTRAL AND SOUTH CENTRAL TEXAS

CITY           SKY/WX    TMP DP  RH WIND       PRES   REMARKS
AUSTIN/BERGSTM MOSUNNY   68  30  24 VRB5      30.10F
WACO           SUNNY     65  27  23 SE7       30.09F
HILLSBORO      CLEAR     66  29  24 CALM      30.09F
TEMPLE         SUNNY     67  28  23 VRB5      30.10F
KILLEEN-GRAY   SUNNY     69  26  19 W3        30.07F
FORT HOOD      SUNNY     67  26  21 W5        30.05F
GEORGETOWN     SUNNY     68  30  24 VRB5      30.11F
LAGO VISTA     FAIR      67  28  22 W8        30.10F
SAN MARCOS     SUNNY     69  28  21 S5        30.11
NEW BRAUNFELS  SUNNY     68  26  20 VRB3      30.10F
RANDOLPH AFB   SUNNY     68  25  20 S6        30.10F
SAN ANTONIO    MOSUNNY   69  26  20 CALM      30.11F
STINSON        SUNNY     70  25  18 SW5       30.10F
PLEASANTON     NOT AVBL
LA GRANGE      SUNNY     66  30  26 N3        30.09F
GIDDINGS       CLEAR     64  28  26 CALM      30.12F
$$

EAST TEXAS

CITY           SKY/WX    TMP DP  RH WIND       PRES   REMARKS
PARIS          SUNNY     62  28  27 SW7       30.08F
CLARKSVILLE    NOT AVBL
TYLER          SUNNY     62  22  21 CALM      30.10F
LONGVIEW       SUNNY     61  32  33 CALM      30.10F
PALESTINE      CLEAR     62  27  26 CALM      30.12F
NACOGDOCHES    SUNNY     61  32  33 NW7       30.11F
$$

TEXAS HILL COUNTRY AND EDWARDS PLATEAU

CITY           SKY/WX    TMP DP  RH WIND       PRES   REMARKS
LLANO          CLEAR     72  28  20 N3        30.11F
HORSESHOE BAY  FAIR      71  29  21 CALM      30.10F
KERRVILLE      SUNNY     69  29  22 CALM      30.11F
FREDERICKSBRG  SUNNY     69  26  19 NW5       30.10F
ROCKSPRINGS    NOT AVBL
HONDO          SUNNY     73  26  17 SW10G16   30.11F
UVALDE         CLEAR     68  31  25 W3        30.13F
DEL RIO        SUNNY     69  37  30 VRB3      30.10F
$$

SOUTHEAST TEXAS

CITY           SKY/WX    TMP DP  RH WIND       PRES   REMARKS
COLLEGE STN    SUNNY     64  29  26 CALM      30.11F
CALDWELL       CLEAR     65  29  26 MISG      30.11F
CROCKETT         N/A     63  32  31 NW3       30.13F
BRENHAM        SUNNY     64  28  25 CALM      30.12F
HUNTSVILLE     SUNNY     64  31  28 VRB3      30.10F
CONROE         SUNNY     64  33  31 W5        30.10F
HOUSTON BUSH   MOSUNNY   65  35  33 NW6       30.10F
HOUSTON HOBBY  MOSUNNY   63  33  32 NW7       30.10F
PERLAND        SUNNY     65  31  28 VRB6      30.12F
WHARTON        CLEAR     64  29  26 N3        30.12F
$$

THE UPPER TEXAS COAST

CITY           SKY/WX    TMP DP  RH WIND       PRES   REMARKS
ORANGE         CLEAR     61  32  33 N9        30.11F
PORT ARTHUR    SUNNY     63  35  35 N10       30.08F
GALVESTON      SUNNY     62  37  39 N9        30.12F
ANGLETON       SUNNY     67  34  29 N9        30.11F
BAY CITY       CLEAR     66  34  30 NE5       30.11F
$$

TEXAS COASTAL BEND, RIO GRANDE PLAINS DEEP SOUTH TEXAS

CITY           SKY/WX    TMP DP  RH WIND       PRES   REMARKS
VICTORIA       SUNNY     69  28  21 NW9       30.12F
BEEVILLE       FAIR      70  26  19 NE5       30.11F
ROCKPORT       SUNNY     66  32  28 VRB3      30.11F
PORT ARANSAS   NOT AVBL
PORT LAVACA    CLEAR     68  33  27 NE5       30.12F
CORPUS CHRISTI MOSUNNY   70  28  21 N9        30.12F
KINGSVILLE NAS SUNNY     72  28  19 N7        30.12F
COTULLA        SUNNY     72  27  18 N6        30.12F
LAREDO         SUNNY     71  35  26 NW3       30.12F
BROWNSVILLE    SUNNY     75  33  21 N10       30.11F
PORT ISABEL    SUNNY     71  33  24 N9        30.11F
HEBBRONVILLE   CLEAR     72  30  21 NE3       30.11F
MCALLEN        SUNNY     74  41  30 N7        30.12F
WESLACO        SUNNY     71  37  29 CALM      30.10F
FALFURRIAS     CLEAR     71  26  18 N7        30.11F
EDINBURG       CLEAR     74  32  21 CALM      30.12F
$$



USA.gov is the U.S. government's official web portal to all federal, state and local government web resources and services.